| time (UTC) | temp F | wind direction | speed MPH | gust MPH | rain 1hr in | rain 24hr in | rain mn in | humidity % | barometer mb |
| 20260507070018 | 51 | 30 | 0.0 | 0.0 | 0.00 | 0.28 | 0.11 | 93 | 1010.8 |
| 20260507065518 | 51 | 30 | 0.0 | 0.0 | 0.00 | 0.28 | 0.11 | 93 | 1010.8 |
| 20260507065018 | 51 | 30 | 0.0 | 0.0 | 0.00 | 0.28 | 0.11 | 93 | 1010.8 |
| 20260507064518 | 51 | 30 | 0.0 | 0.0 | 0.00 | 0.28 | 0.11 | 93 | 1010.6 |
| 20260507064019 | 51 | 30 | 0.0 | 0.0 | 0.01 | 0.28 | 0.11 | 92 | 1010.7 |
| 20260507063519 | 51 | 30 | 0.0 | 0.0 | 0.01 | 0.28 | 0.11 | 92 | 1010.6 |
| 20260507063018 | 51 | 30 | 0.0 | 0.0 | 0.01 | 0.28 | 0.11 | 92 | 1010.8 |
| 20260507062517 | 51 | 30 | 0.0 | 0.0 | 0.01 | 0.28 | 0.11 | 92 | 1010.7 |
| 20260507062017 | 51 | 30 | 0.0 | 0.0 | 0.01 | 0.28 | 0.11 | 92 | 1010.8 |
| 20260507061518 | 51 | 30 | 0.0 | 0.0 | 0.02 | 0.28 | 0.11 | 92 | 1010.8 |
| 20260507061017 | 51 | 30 | 0.0 | 0.0 | 0.02 | 0.28 | 0.11 | 92 | 1010.9 |
| 20260507060517 | 51 | 30 | 0.0 | 0.0 | 0.03 | 0.28 | 0.11 | 92 | 1010.8 |
| 20260507060020 | 51 | 30 | 0.0 | 0.0 | 0.03 | 0.28 | 0.11 | 91 | 1010.8 |
| 20260507055516 | 51 | 30 | 0.0 | 0.0 | 0.04 | 0.28 | 0.11 | 91 | 1010.8 |
| 20260507055016 | 51 | 30 | 0.0 | 0.0 | 0.04 | 0.28 | 0.11 | 91 | 1010.8 |
| 20260507054516 | 51 | 30 | 0.0 | 0.0 | 0.03 | 0.28 | 0.10 | 91 | 1010.7 |
| 20260507054019 | 51 | 30 | 0.0 | 1.0 | 0.03 | 0.28 | 0.10 | 90 | 1010.5 |
| 20260507053515 | 51 | 30 | 0.0 | 3.0 | 0.03 | 0.28 | 0.10 | 90 | 1010.6 |
| 20260507053015 | 51 | 30 | 0.0 | 4.0 | 0.03 | 0.28 | 0.10 | 90 | 1010.7 |
| 20260507052514 | 51 | 30 | 0.0 | 6.0 | 0.03 | 0.28 | 0.10 | 89 | 1010.8 |
| 20260507052014 | 51 | 25 | 1.0 | 6.0 | 0.04 | 0.28 | 0.10 | 89 | 1010.7 |
| 20260507051513 | 52 | 48 | 2.0 | 7.0 | 0.05 | 0.27 | 0.09 | 88 | 1010.8 |
| 20260507051011 | 52 | 40 | 4.0 | 8.0 | 0.06 | 0.27 | 0.09 | 88 | 1010.8 |
| 20260507050509 | 52 | 9 | 3.0 | 8.0 | 0.06 | 0.26 | 0.08 | 88 | 1010.8 |
| 20260507050028 | 53 | 30 | 1.0 | 6.0 | 0.07 | 0.26 | 0.08 | 89 | 1010.8 |
| 20260507045511 | 53 | 45 | 0.0 | 4.0 | 0.07 | 0.25 | 0.07 | 90 | 1010.8 |
| 20260507045007 | 54 | 40 | 0.0 | 3.0 | 0.07 | 0.25 | 0.07 | 90 | 1010.8 |
| 20260507044506 | 54 | 40 | 0.0 | 2.0 | 0.07 | 0.25 | 0.07 | 90 | 1010.8 |
| 20260507044005 | 54 | 40 | 0.0 | 2.0 | 0.08 | 0.25 | 0.07 | 90 | 1010.4 |
| 20260507043506 | 54 | 40 | 0.0 | 2.0 | 0.08 | 0.25 | 0.07 | 89 | 1010.6 |
| 20260507043004 | 54 | 40 | 0.0 | 3.0 | 0.08 | 0.25 | 0.07 | 88 | 1010.5 |
| 20260507042504 | 54 | 40 | 0.0 | 4.0 | 0.08 | 0.25 | 0.07 | 88 | 1010.6 |
| 20260507042002 | 55 | 40 | 1.0 | 4.0 | 0.07 | 0.24 | 0.06 | 88 | 1010.5 |
| 20260507041611 | 55 | 46 | 0.0 | 3.0 | 0.05 | 0.22 | 0.04 | 87 | 1010.5 |
| 20260507041103 | 55 | 46 | 1.0 | 3.0 | 0.04 | 0.21 | 0.03 | 86 | 1010.1 |
| 20260507040558 | 56 | 46 | 0.0 | 5.0 | 0.03 | 0.20 | 0.02 | 86 | 1010.3 |
| 20260507040057 | 56 | 46 | 0.0 | 5.0 | 0.02 | 0.19 | 0.01 | 85 | 1010.2 |
| 20260507035557 | 56 | 66 | 0.0 | 3.0 | 0.01 | 0.18 | 0.18 | 84 | 1010.1 |
| 20260507035056 | 56 | 66 | 1.0 | 3.0 | 0.01 | 0.18 | 0.18 | 83 | 1010.1 |
| 20260507034600 | 57 | 69 | 0.0 | 3.0 | 0.01 | 0.18 | 0.18 | 82 | 1009.9 |
| 20260507034054 | 57 | 69 | 0.0 | 3.0 | 0.00 | 0.17 | 0.17 | 81 | 1010.2 |
| 20260507033553 | 57 | 64 | 0.0 | 3.0 | 0.00 | 0.17 | 0.17 | 80 | 1010.3 |
| 20260507033055 | 57 | 38 | 1.0 | 4.0 | 0.00 | 0.17 | 0.17 | 80 | 1010.1 |
| 20260507032557 | 57 | 360 | 0.0 | 2.0 | 0.00 | 0.17 | 0.17 | 79 | 1010.1 |
| 20260507032058 | 57 | 360 | 0.0 | 5.0 | 0.00 | 0.17 | 0.17 | 79 | 1010.0 |
| 20260507031552 | 58 | 360 | 1.0 | 6.0 | 0.00 | 0.17 | 0.17 | 80 | 1010.1 |
| 20260507031051 | 58 | 360 | 2.0 | 5.0 | 0.00 | 0.17 | 0.17 | 80 | 1010.0 |
| 20260507030549 | 58 | 360 | 0.0 | 5.0 | 0.00 | 0.17 | 0.17 | 80 | 1009.8 |
| 20260507030049 | 58 | 360 | 0.0 | 5.0 | 0.00 | 0.17 | 0.17 | 79 | 1009.6 |
| 20260507025547 | 58 | 360 | 0.0 | 6.0 | 0.00 | 0.17 | 0.17 | 79 | 1009.5 |
| 20260507025048 | 58 | 360 | 1.0 | 6.0 | 0.00 | 0.17 | 0.17 | 79 | 1009.7 |
| 20260507024552 | 58 | 360 | 0.0 | 9.0 | 0.00 | 0.17 | 0.17 | 79 | 1010.0 |
| 20260507024048 | 58 | 360 | 3.0 | 9.0 | 0.00 | 0.17 | 0.17 | 78 | 1009.9 |
| 20260507023546 | 58 | 360 | 1.0 | 5.0 | 0.00 | 0.17 | 0.17 | 79 | 1009.9 |
| 20260507023046 | 59 | 360 | 1.0 | 4.0 | 0.00 | 0.17 | 0.17 | 80 | 1009.5 |
| 20260507022546 | 59 | 360 | 1.0 | 4.0 | 0.00 | 0.17 | 0.17 | 80 | 1009.7 |
| 20260507022045 | 59 | 360 | 0.0 | 4.0 | 0.00 | 0.17 | 0.17 | 81 | 1009.6 |
| 20260507021557 | 59 | 360 | 1.0 | 4.0 | 0.00 | 0.17 | 0.17 | 80 | 1009.7 |
| 20260507021043 | 59 | 360 | 0.0 | 4.0 | 0.00 | 0.17 | 0.17 | 80 | 1009.6 |
| 20260507020543 | 59 | 360 | 1.0 | 5.0 | 0.00 | 0.17 | 0.17 | 80 | 1009.5 |
| 20260507020059 | 60 | 360 | 2.0 | 6.0 | 0.00 | 0.17 | 0.17 | 81 | 1009.8 |
| 20260507015543 | 60 | 360 | 1.0 | 6.0 | 0.00 | 0.17 | 0.17 | 81 | 1009.6 |
| 20260507015041 | 60 | 360 | 1.0 | 6.0 | 0.00 | 0.17 | 0.17 | 82 | 1009.6 |
| 20260507014556 | 60 | 360 | 1.0 | 4.0 | 0.00 | 0.17 | 0.17 | 82 | 1009.4 |
| 20260507014040 | 60 | 360 | 0.0 | 2.0 | 0.00 | 0.17 | 0.17 | 82 | 1009.6 |
| 20260507013540 | 61 | 360 | 0.0 | 2.0 | 0.00 | 0.17 | 0.17 | 82 | 1009.6 |
| 20260507013046 | 61 | 360 | 0.0 | 1.0 | 0.00 | 0.17 | 0.17 | 82 | 1009.7 |
| 20260507012539 | 61 | 360 | 0.0 | 2.0 | 0.00 | 0.17 | 0.17 | 81 | 1009.7 |
| 20260507012040 | 61 | 360 | 0.0 | 2.0 | 0.00 | 0.17 | 0.17 | 81 | 1009.7 |
| 20260507011544 | 61 | 360 | 0.0 | 2.0 | 0.00 | 0.17 | 0.17 | 81 | 1009.8 |
| 20260507011038 | 61 | 360 | 0.0 | 2.0 | 0.00 | 0.17 | 0.17 | 81 | 1009.9 |
| 20260507010539 | 61 | 360 | 0.0 | 3.0 | 0.00 | 0.17 | 0.17 | 81 | 1009.4 |
| 20260507010044 | 62 | 360 | 0.0 | 3.0 | 0.00 | 0.17 | 0.17 | 82 | 1009.6 |
| 20260507005537 | 62 | 360 | 1.0 | 3.0 | 0.00 | 0.17 | 0.17 | 82 | 1009.6 |
| 20260507005035 | 63 | 360 | 0.0 | 2.0 | 0.00 | 0.17 | 0.17 | 84 | 1009.5 |
| 20260507004536 | 63 | 360 | 0.0 | 2.0 | 0.00 | 0.17 | 0.17 | 86 | 1009.3 |
| 20260507004035 | 64 | 360 | 0.0 | 2.0 | 0.00 | 0.17 | 0.17 | 87 | 1009.1 |
| 20260507003535 | 64 | 360 | 0.0 | 2.0 | 0.00 | 0.17 | 0.17 | 87 | 1009.1 |
| 20260507003034 | 64 | 360 | 0.0 | 4.0 | 0.00 | 0.17 | 0.17 | 87 | 1008.9 |
| 20260507002534 | 64 | 360 | 1.0 | 4.0 | 0.00 | 0.17 | 0.17 | 87 | 1009.0 |
| 20260507002033 | 64 | 360 | 0.0 | 2.0 | 0.00 | 0.17 | 0.17 | 87 | 1009.0 |
| 20260507001552 | 64 | 360 | 0.0 | 1.0 | 0.00 | 0.17 | 0.17 | 87 | 1008.7 |
| 20260507001032 | 65 | 360 | 0.0 | 1.0 | 0.00 | 0.17 | 0.17 | 87 | 1008.6 |
| 20260507000534 | 65 | 360 | 0.0 | 0.0 | 0.00 | 0.17 | 0.17 | 87 | 1008.4 |
| 20260507000038 | 65 | 360 | 0.0 | 0.0 | 0.00 | 0.17 | 0.17 | 87 | 1008.2 |
| 20260506235532 | 65 | 360 | 0.0 | 1.0 | 0.00 | 0.17 | 0.17 | 86 | 1008.0 |
| 20260506235032 | 65 | 360 | 0.0 | 1.0 | 0.00 | 0.17 | 0.17 | 86 | 1008.0 |
| 20260506234536 | 65 | 227 | 0.0 | 1.0 | 0.00 | 0.17 | 0.17 | 86 | 1007.9 |
| 20260506234032 | 65 | 227 | 0.0 | 3.0 | 0.00 | 0.17 | 0.17 | 85 | 1007.9 |
| 20260506233532 | 65 | 227 | 0.0 | 7.0 | 0.00 | 0.17 | 0.17 | 85 | 1007.9 |
| 20260506233033 | 65 | 205 | 1.0 | 5.0 | 0.00 | 0.17 | 0.17 | 86 | 1007.6 |
| 20260506232531 | 65 | 217 | 1.0 | 3.0 | 0.00 | 0.17 | 0.17 | 85 | 1007.5 |
| 20260506232031 | 66 | 200 | 0.0 | 2.0 | 0.00 | 0.17 | 0.17 | 85 | 1007.6 |
| 20260506231534 | 66 | 201 | 0.0 | 1.0 | 0.00 | 0.17 | 0.17 | 85 | 1007.6 |
| 20260506231032 | 66 | 199 | 0.0 | 2.0 | 0.00 | 0.17 | 0.17 | 85 | 1007.6 |
| 20260506230531 | 66 | 207 | 0.0 | 3.0 | 0.00 | 0.17 | 0.17 | 85 | 1007.6 |
| 20260506230032 | 66 | 208 | 0.0 | 3.0 | 0.00 | 0.17 | 0.17 | 85 | 1007.6 |
| 20260506225530 | 66 | 203 | 0.0 | 2.0 | 0.00 | 0.17 | 0.17 | 84 | 1007.5 |
| 20260506225030 | 66 | 201 | 0.0 | 6.0 | 0.00 | 0.17 | 0.17 | 84 | 1007.4 |
| 20260506224532 | 66 | 201 | 0.0 | 6.0 | 0.00 | 0.17 | 0.17 | 84 | 1007.4 |
| 20260506224030 | 66 | 207 | 1.0 | 5.0 | 0.00 | 0.17 | 0.17 | 84 | 1007.5 |
| 20260506223530 | 66 | 250 | 1.0 | 7.0 | 0.00 | 0.17 | 0.17 | 83 | 1007.5 |
| 20260506223030 | 67 | 252 | 1.0 | 7.0 | 0.00 | 0.17 | 0.17 | 83 | 1007.5 |
| 20260506222530 | 67 | 199 | 2.0 | 6.0 | 0.00 | 0.17 | 0.17 | 83 | 1007.4 |
| 20260506222033 | 67 | 198 | 2.0 | 6.0 | 0.00 | 0.17 | 0.17 | 82 | 1007.3 |
| 20260506221530 | 67 | 207 | 2.0 | 6.0 | 0.00 | 0.17 | 0.17 | 82 | 1007.3 |
| 20260506221029 | 67 | 195 | 2.0 | 6.0 | 0.00 | 0.17 | 0.17 | 82 | 1007.3 |
| 20260506220529 | 67 | 209 | 3.0 | 6.0 | 0.00 | 0.17 | 0.17 | 82 | 1007.3 |
| 20260506220031 | 67 | 211 | 1.0 | 8.0 | 0.00 | 0.17 | 0.17 | 82 | 1007.2 |
| 20260506215528 | 67 | 258 | 2.0 | 8.0 | 0.00 | 0.17 | 0.17 | 82 | 1007.3 |
| 20260506215028 | 67 | 294 | 1.0 | 6.0 | 0.00 | 0.17 | 0.17 | 82 | 1007.2 |
| 20260506214529 | 67 | 215 | 1.0 | 6.0 | 0.00 | 0.17 | 0.17 | 82 | 1007.1 |
| 20260506214029 | 67 | 209 | 1.0 | 6.0 | 0.00 | 0.17 | 0.17 | 82 | 1006.8 |
| 20260506213529 | 67 | 200 | 1.0 | 3.0 | 0.00 | 0.17 | 0.17 | 82 | 1007.0 |
| 20260506213032 | 67 | 196 | 0.0 | 2.0 | 0.00 | 0.17 | 0.17 | 82 | 1006.8 |
| 20260506212528 | 67 | 196 | 0.0 | 4.0 | 0.00 | 0.17 | 0.17 | 81 | 1006.9 |
| 20260506212030 | 67 | 196 | 0.0 | 7.0 | 0.00 | 0.17 | 0.17 | 81 | 1006.9 |
| 20260506211539 | 68 | 227 | 2.0 | 7.0 | 0.00 | 0.17 | 0.17 | 80 | 1006.8 |
| 20260506211027 | 68 | 234 | 1.0 | 8.0 | 0.00 | 0.17 | 0.17 | 80 | 1006.8 |
| 20260506210527 | 68 | 232 | 2.0 | 8.0 | 0.00 | 0.17 | 0.17 | 81 | 1006.5 |
| 20260506210034 | 68 | 202 | 1.0 | 6.0 | 0.00 | 0.17 | 0.17 | 81 | 1006.5 |
| 20260506205527 | 69 | 205 | 1.0 | 7.0 | 0.00 | 0.17 | 0.17 | 81 | 1006.5 |
| 20260506205027 | 69 | 205 | 2.0 | 7.0 | 0.00 | 0.17 | 0.17 | 81 | 1006.5 |
| 20260506204532 | 68 | 209 | 2.0 | 10.0 | 0.00 | 0.17 | 0.17 | 81 | 1006.5 |
| 20260506204026 | 68 | 204 | 3.0 | 9.0 | 0.00 | 0.17 | 0.17 | 81 | 1006.4 |
| 20260506203526 | 68 | 218 | 0.0 | 4.0 | 0.00 | 0.17 | 0.17 | 82 | 1006.4 |
| 20260506203026 | 68 | 219 | 0.0 | 4.0 | 0.00 | 0.17 | 0.17 | 83 | 1006.4 |
| 20260506202526 | 67 | 232 | 1.0 | 3.0 | 0.00 | 0.17 | 0.17 | 85 | 1006.5 |
| 20260506202025 | 67 | 231 | 0.0 | 3.0 | 0.00 | 0.17 | 0.17 | 84 | 1006.7 |
| 20260506201534 | 67 | 232 | 1.0 | 3.0 | 0.00 | 0.17 | 0.17 | 83 | 1006.6 |
| 20260506201024 | 66 | 245 | 0.0 | 3.0 | 0.00 | 0.17 | 0.17 | 85 | 1006.7 |
| 20260506200524 | 66 | 246 | 0.0 | 2.0 | 0.00 | 0.17 | 0.17 | 86 | 1006.6 |
| 20260506200029 | 66 | 244 | 0.0 | 2.0 | 0.00 | 0.17 | 0.17 | 86 | 1006.5 |
| 20260506195524 | 66 | 243 | 0.0 | 3.0 | 0.00 | 0.17 | 0.17 | 87 | 1006.5 |
| 20260506195023 | 65 | 243 | 0.0 | 3.0 | 0.00 | 0.17 | 0.17 | 86 | 1006.5 |
| 20260506194525 | 65 | 242 | 0.0 | 3.0 | 0.00 | 0.17 | 0.17 | 86 | 1006.6 |
| 20260506194024 | 66 | 242 | 0.0 | 2.0 | 0.00 | 0.17 | 0.17 | 86 | 1006.6 |
| 20260506193522 | 66 | 244 | 0.0 | 4.0 | 0.00 | 0.17 | 0.17 | 86 | 1006.7 |
| 20260506193033 | 66 | 254 | 1.0 | 4.0 | 0.00 | 0.17 | 0.17 | 85 | 1006.6 |
| 20260506192521 | 66 | 256 | 1.0 | 5.0 | 0.00 | 0.17 | 0.17 | 85 | 1006.8 |
| 20260506192021 | 66 | 210 | 1.0 | 7.0 | 0.00 | 0.17 | 0.17 | 85 | 1006.8 |
| 20260506191521 | 66 | 254 | 2.0 | 7.0 | 0.00 | 0.17 | 0.17 | 85 | 1006.8 |
| 20260506191021 | 65 | 217 | 1.0 | 7.0 | 0.00 | 0.17 | 0.17 | 86 | 1006.9 |
| 20260506190522 | 65 | 198 | 2.0 | 7.0 | 0.00 | 0.17 | 0.17 | 86 | 1006.8 |
| 20260506190021 | 65 | 196 | 2.0 | 6.0 | 0.00 | 0.17 | 0.17 | 86 | 1006.8 |
| 20260506185520 | 65 | 194 | 2.0 | 5.0 | 0.00 | 0.17 | 0.17 | 86 | 1006.8 |
| 20260506185020 | 64 | 220 | 1.0 | 5.0 | 0.00 | 0.17 | 0.17 | 86 | 1006.9 |
| 20260506184520 | 64 | 273 | 2.0 | 5.0 | 0.00 | 0.17 | 0.17 | 86 | 1006.9 |
| 20260506184020 | 64 | 198 | 2.0 | 6.0 | 0.00 | 0.17 | 0.17 | 87 | 1007.0 |
| 20260506183520 | 64 | 250 | 2.0 | 7.0 | 0.00 | 0.17 | 0.17 | 87 | 1007.0 |
| 20260506183020 | 64 | 205 | 2.0 | 7.0 | 0.00 | 0.17 | 0.17 | 87 | 1007.0 |
| 20260506182519 | 64 | 154 | 2.0 | 5.0 | 0.00 | 0.17 | 0.17 | 87 | 1007.0 |
| 20260506182022 | 64 | 360 | 1.0 | 6.0 | 0.00 | 0.17 | 0.17 | 87 | 1007.0 |
| 20260506181534 | 64 | 183 | 2.0 | 7.0 | 0.00 | 0.17 | 0.17 | 87 | 1007.2 |
| 20260506181019 | 64 | 186 | 2.0 | 8.0 | 0.00 | 0.17 | 0.17 | 88 | 1007.1 |
| 20260506180519 | 64 | 206 | 1.0 | 8.0 | 0.00 | 0.17 | 0.17 | 88 | 1007.2 |
| 20260506180019 | 63 | 186 | 2.0 | 8.0 | 0.00 | 0.17 | 0.17 | 88 | 1007.3 |
| 20260506175521 | 63 | 194 | 2.0 | 6.0 | 0.00 | 0.17 | 0.17 | 88 | 1007.3 |
| 20260506175017 | 63 | 197 | 2.0 | 6.0 | 0.00 | 0.17 | 0.17 | 89 | 1007.3 |
| 20260506174518 | 63 | 360 | 2.0 | 6.0 | 0.00 | 0.17 | 0.17 | 90 | 1007.4 |
| 20260506174021 | 62 | 360 | 2.0 | 6.0 | 0.00 | 0.17 | 0.17 | 90 | 1007.3 |
| 20260506173520 | 62 | 360 | 1.0 | 8.0 | 0.00 | 0.17 | 0.17 | 90 | 1007.3 |
| 20260506173021 | 62 | 208 | 3.0 | 8.0 | 0.00 | 0.17 | 0.17 | 90 | 1007.3 |
| 20260506172517 | 62 | 360 | 2.0 | 7.0 | 0.00 | 0.17 | 0.17 | 91 | 1007.3 |
| 20260506172017 | 62 | 360 | 2.0 | 7.0 | 0.00 | 0.17 | 0.17 | 90 | 1007.3 |
| 20260506171520 | 62 | 360 | 2.0 | 7.0 | 0.00 | 0.17 | 0.17 | 90 | 1007.2 |
| 20260506171019 | 62 | 360 | 1.0 | 8.0 | 0.00 | 0.17 | 0.17 | 91 | 1007.3 |
| 20260506170516 | 62 | 360 | 2.0 | 11.0 | 0.00 | 0.17 | 0.17 | 91 | 1007.3 |
| 20260506170017 | 61 | 360 | 4.0 | 11.0 | 0.00 | 0.17 | 0.17 | 91 | 1007.3 |
| 20260506165517 | 61 | 360 | 3.0 | 8.0 | 0.00 | 0.17 | 0.17 | 91 | 1007.3 |
| 20260506165017 | 61 | 360 | 3.0 | 10.0 | 0.00 | 0.17 | 0.17 | 91 | 1007.2 |
| 20260506164517 | 61 | 360 | 5.0 | 10.0 | 0.00 | 0.17 | 0.17 | 91 | 1007.3 |
| 20260506164018 | 61 | 194 | 3.0 | 10.0 | 0.00 | 0.17 | 0.17 | 91 | 1007.1 |
| 20260506163516 | 61 | 360 | 2.0 | 11.0 | 0.00 | 0.17 | 0.17 | 92 | 1007.1 |
| 20260506163022 | 61 | 360 | 4.0 | 10.0 | 0.00 | 0.17 | 0.17 | 92 | 1007.1 |
| 20260506162516 | 61 | 193 | 4.0 | 10.0 | 0.00 | 0.17 | 0.17 | 92 | 1007.2 |
| 20260506162017 | 61 | 231 | 2.0 | 7.0 | 0.00 | 0.17 | 0.17 | 92 | 1007.3 |
| 20260506161516 | 61 | 210 | 3.0 | 7.0 | 0.00 | 0.17 | 0.17 | 92 | 1007.5 |
| 20260506161018 | 61 | 186 | 3.0 | 8.0 | 0.01 | 0.17 | 0.17 | 92 | 1007.4 |
| 20260506160514 | 61 | 360 | 2.0 | 10.0 | 0.02 | 0.17 | 0.17 | 92 | 1007.5 |
| 20260506160016 | 61 | 182 | 3.0 | 10.0 | 0.03 | 0.17 | 0.17 | 92 | 1007.4 |
| 20260506155514 | 61 | 204 | 3.0 | 7.0 | 0.03 | 0.17 | 0.17 | 93 | 1007.3 |
| 20260506155014 | 61 | 193 | 3.0 | 10.0 | 0.04 | 0.17 | 0.17 | 93 | 1007.3 |
| 20260506154514 | 61 | 199 | 2.0 | 12.0 | 0.05 | 0.17 | 0.17 | 93 | 1007.5 |
| 20260506154014 | 61 | 360 | 5.0 | 12.0 | 0.05 | 0.17 | 0.17 | 93 | 1007.2 |
| 20260506153515 | 61 | 167 | 3.0 | 9.0 | 0.05 | 0.17 | 0.17 | 93 | 1007.1 |
| 20260506153021 | 61 | 360 | 2.0 | 7.0 | 0.06 | 0.17 | 0.17 | 94 | 1007.2 |
| 20260506152514 | 61 | 360 | 2.0 | 9.0 | 0.07 | 0.17 | 0.17 | 94 | 1006.8 |
| 20260506152013 | 61 | 360 | 3.0 | 9.0 | 0.07 | 0.17 | 0.17 | 93 | 1006.9 |
| 20260506151513 | 61 | 175 | 3.0 | 8.0 | 0.08 | 0.17 | 0.17 | 93 | 1007.1 |
| 20260506151012 | 61 | 360 | 3.0 | 7.0 | 0.07 | 0.16 | 0.16 | 93 | 1007.5 |
| 20260506150512 | 61 | 360 | 2.0 | 7.0 | 0.06 | 0.15 | 0.15 | 93 | 1007.8 |
| 20260506150016 | 61 | 360 | 2.0 | 7.0 | 0.05 | 0.14 | 0.14 | 93 | 1008.0 |
| 20260506145514 | 61 | 360 | 2.0 | 7.0 | 0.04 | 0.13 | 0.13 | 93 | 1008.2 |
| 20260506145012 | 61 | 360 | 2.0 | 7.0 | 0.04 | 0.13 | 0.13 | 93 | 1008.2 |
| 20260506144514 | 61 | 360 | 3.0 | 7.0 | 0.04 | 0.12 | 0.12 | 92 | 1008.2 |
| 20260506144011 | 61 | 360 | 2.0 | 7.0 | 0.04 | 0.12 | 0.12 | 92 | 1008.3 |
| 20260506143511 | 61 | 360 | 2.0 | 7.0 | 0.05 | 0.12 | 0.12 | 92 | 1008.2 |
| 20260506143021 | 61 | 360 | 3.0 | 8.0 | 0.05 | 0.11 | 0.11 | 92 | 1008.2 |
| 20260506142511 | 61 | 360 | 2.0 | 10.0 | 0.04 | 0.10 | 0.10 | 91 | 1008.0 |
| 20260506142009 | 61 | 360 | 2.0 | 10.0 | 0.06 | 0.10 | 0.10 | 91 | 1007.9 |
| 20260506141510 | 61 | 360 | 2.0 | 13.0 | 0.06 | 0.09 | 0.09 | 91 | 1007.7 |
| 20260506141010 | 61 | 360 | 4.0 | 15.0 | 0.07 | 0.09 | 0.09 | 91 | 1007.6 |
| 20260506140509 | 61 | 360 | 6.0 | 15.0 | 0.07 | 0.09 | 0.09 | 91 | 1007.7 |
| 20260506140016 | 61 | 360 | 5.0 | 10.0 | 0.07 | 0.09 | 0.09 | 91 | 1007.7 |
| 20260506135507 | 61 | 360 | 4.0 | 11.0 | 0.07 | 0.09 | 0.09 | 91 | 1007.7 |
| 20260506135008 | 60 | 360 | 5.0 | 12.0 | 0.06 | 0.08 | 0.08 | 91 | 1007.6 |
| 20260506134507 | 60 | 360 | 4.0 | 12.0 | 0.07 | 0.08 | 0.08 | 90 | 1007.6 |
| 20260506134007 | 61 | 360 | 2.0 | 13.0 | 0.07 | 0.08 | 0.08 | 90 | 1007.7 |
| 20260506133508 | 61 | 360 | 3.0 | 13.0 | 0.06 | 0.07 | 0.07 | 89 | 1007.7 |
| 20260506133006 | 61 | 360 | 2.0 | 9.0 | 0.06 | 0.06 | 0.06 | 88 | 1007.8 |
| 20260506132506 | 61 | 360 | 2.0 | 9.0 | 0.05 | 0.05 | 0.05 | 88 | 1007.7 |
| 20260506132003 | 61 | 360 | 2.0 | 8.0 | 0.04 | 0.04 | 0.04 | 87 | 1007.8 |
| 20260506131507 | 62 | 360 | 2.0 | 8.0 | 0.03 | 0.03 | 0.03 | 86 | 1007.9 |
| 20260506131003 | 62 | 189 | 2.0 | 7.0 | 0.02 | 0.02 | 0.02 | 86 | 1008.0 |
| 20260506130601 | 62 | 360 | 2.0 | 5.0 | 0.02 | 0.02 | 0.02 | 85 | 1008.0 |
| 20260506130122 | 62 | 360 | 1.0 | 5.0 | 0.02 | 0.02 | 0.02 | 85 | 1007.8 |
| 20260506125600 | 62 | 360 | 2.0 | 5.0 | 0.02 | 0.02 | 0.02 | 85 | 1007.8 |
| 20260506125100 | 62 | 360 | 2.0 | 9.0 | 0.02 | 0.02 | 0.02 | 84 | 1007.9 |
| 20260506124600 | 62 | 360 | 3.0 | 9.0 | 0.01 | 0.01 | 0.01 | 83 | 1007.9 |
| 20260506124059 | 63 | 360 | 2.0 | 12.0 | 0.01 | 0.01 | 0.01 | 83 | 1008.0 |
| 20260506123558 | 63 | 360 | 4.0 | 12.0 | 0.01 | 0.01 | 0.01 | 81 | 1008.0 |
| 20260506123058 | 63 | 360 | 2.0 | 8.0 | 0.00 | 0.00 | 0.00 | 80 | 1008.0 |
| 20260506122556 | 63 | 197 | 4.0 | 11.0 | 0.00 | 0.00 | 0.00 | 79 | 1008.1 |
| 20260506122056 | 63 | 187 | 3.0 | 11.0 | 0.00 | 0.00 | 0.00 | 79 | 1008.2 |
| 20260506121556 | 63 | 206 | 2.0 | 9.0 | 0.00 | 0.00 | 0.00 | 79 | 1008.3 |
| 20260506121055 | 63 | 248 | 3.0 | 9.0 | 0.00 | 0.00 | 0.00 | 78 | 1008.4 |
| 20260506120555 | 64 | 214 | 2.0 | 8.0 | 0.00 | 0.00 | 0.00 | 78 | 1008.3 |
| 20260506120053 | 64 | 197 | 3.0 | 9.0 | 0.00 | 0.00 | 0.00 | 77 | 1008.3 |
| 20260506115555 | 64 | 196 | 2.0 | 9.0 | 0.00 | 0.00 | 0.00 | 76 | 1008.2 |
| 20260506115051 | 64 | 257 | 1.0 | 8.0 | 0.00 | 0.00 | 0.00 | 76 | 1008.0 |
| 20260506114558 | 64 | 203 | 3.0 | 8.0 | 0.00 | 0.00 | 0.00 | 76 | 1008.0 |
| 20260506114051 | 64 | 229 | 3.0 | 8.0 | 0.00 | 0.00 | 0.00 | 76 | 1007.9 |
| 20260506113551 | 64 | 190 | 4.0 | 8.0 | 0.00 | 0.00 | 0.00 | 75 | 1007.8 |
| 20260506113050 | 64 | 219 | 1.0 | 7.0 | 0.00 | 0.00 | 0.00 | 75 | 1007.7 |
| 20260506112549 | 64 | 205 | 4.0 | 7.0 | 0.00 | 0.00 | 0.00 | 74 | 1007.7 |
| 20260506112050 | 65 | 222 | 3.0 | 12.0 | 0.00 | 0.00 | 0.00 | 73 | 1007.6 |
| 20260506111548 | 65 | 265 | 4.0 | 13.0 | 0.00 | 0.00 | 0.00 | 71 | 1007.7 |
| 20260506111048 | 65 | 216 | 3.0 | 13.0 | 0.00 | 0.00 | 0.00 | 70 | 1007.7 |
| 20260506110547 | 65 | 197 | 3.0 | 8.0 | 0.00 | 0.00 | 0.00 | 70 | 1007.5 |
| 20260506110047 | 65 | 207 | 2.0 | 8.0 | 0.00 | 0.00 | 0.00 | 70 | 1007.5 |
| 20260506105546 | 65 | 204 | 3.0 | 14.0 | 0.00 | 0.00 | 0.00 | 70 | 1007.4 |
| 20260506105046 | 65 | 196 | 4.0 | 14.0 | 0.00 | 0.00 | 0.00 | 69 | 1007.3 |
| 20260506104608 | 65 | 213 | 4.0 | 12.0 | 0.00 | 0.00 | 0.00 | 69 | 1007.2 |
| 20260506104045 | 65 | 205 | 4.0 | 12.0 | 0.00 | 0.00 | 0.00 | 69 | 1007.1 |
| 20260506103544 | 66 | 184 | 3.0 | 7.0 | 0.00 | 0.00 | 0.00 | 68 | 1007.1 |
| 20260506103044 | 66 | 242 | 3.0 | 12.0 | 0.00 | 0.00 | 0.00 | 68 | 1007.1 |
| 20260506102544 | 66 | 194 | 4.0 | 12.0 | 0.00 | 0.00 | 0.00 | 67 | 1007.2 |
| 20260506102043 | 66 | 203 | 3.0 | 12.0 | 0.00 | 0.00 | 0.00 | 67 | 1007.1 |
| 20260506101548 | 66 | 182 | 4.0 | 12.0 | 0.00 | 0.00 | 0.00 | 66 | 1007.0 |
| 20260506101042 | 66 | 202 | 5.0 | 10.0 | 0.00 | 0.00 | 0.00 | 66 | 1007.0 |
| 20260506100540 | 66 | 187 | 4.0 | 10.0 | 0.00 | 0.00 | 0.00 | 66 | 1006.9 |
| 20260506100044 | 66 | 205 | 3.0 | 17.0 | 0.00 | 0.00 | 0.00 | 65 | 1006.9 |
| 20260506095539 | 66 | 187 | 6.0 | 17.0 | 0.00 | 0.00 | 0.00 | 65 | 1006.9 |
| 20260506095040 | 67 | 163 | 4.0 | 9.0 | 0.00 | 0.00 | 0.00 | 65 | 1006.8 |
| 20260506094539 | 67 | 198 | 3.0 | 12.0 | 0.00 | 0.00 | 0.00 | 64 | 1006.8 |
| 20260506094037 | 67 | 197 | 4.0 | 12.0 | 0.00 | 0.00 | 0.00 | 64 | 1006.9 |
| 20260506093537 | 67 | 189 | 4.0 | 10.0 | 0.00 | 0.00 | 0.00 | 64 | 1006.8 |
| 20260506093036 | 67 | 200 | 3.0 | 12.0 | 0.00 | 0.00 | 0.00 | 64 | 1006.8 |
| 20260506092536 | 67 | 194 | 4.0 | 12.0 | 0.00 | 0.00 | 0.00 | 63 | 1006.8 |
| 20260506092036 | 67 | 218 | 3.0 | 11.0 | 0.00 | 0.00 | 0.00 | 63 | 1006.8 |
| 20260506091535 | 67 | 196 | 4.0 | 13.0 | 0.00 | 0.00 | 0.00 | 63 | 1006.8 |
| 20260506091037 | 67 | 203 | 4.0 | 12.0 | 0.00 | 0.00 | 0.00 | 62 | 1007.0 |
| 20260506090533 | 67 | 163 | 5.0 | 12.0 | 0.00 | 0.00 | 0.00 | 62 | 1007.1 |
| 20260506090041 | 67 | 196 | 5.0 | 14.0 | 0.00 | 0.00 | 0.00 | 62 | 1007.1 |
| 20260506085532 | 67 | 220 | 4.0 | 14.0 | 0.00 | 0.00 | 0.00 | 62 | 1007.3 |
| 20260506085030 | 68 | 188 | 3.0 | 11.0 | 0.00 | 0.00 | 0.00 | 61 | 1007.1 |
| 20260506084533 | 68 | 218 | 4.0 | 13.0 | 0.00 | 0.00 | 0.00 | 61 | 1007.2 |
| 20260506084033 | 68 | 208 | 4.0 | 13.0 | 0.00 | 0.00 | 0.00 | 61 | 1007.2 |
| 20260506083530 | 68 | 190 | 3.0 | 13.0 | 0.00 | 0.00 | 0.00 | 61 | 1007.2 |
| 20260506083038 | 68 | 198 | 4.0 | 10.0 | 0.00 | 0.00 | 0.00 | 61 | 1007.2 |
| 20260506082528 | 68 | 219 | 2.0 | 9.0 | 0.00 | 0.00 | 0.00 | 61 | 1007.2 |
| 20260506082029 | 68 | 167 | 3.0 | 12.0 | 0.00 | 0.00 | 0.00 | 61 | 1007.3 |
| 20260506081527 | 68 | 230 | 3.0 | 13.0 | 0.00 | 0.00 | 0.00 | 60 | 1007.3 |
| 20260506081029 | 68 | 200 | 3.0 | 10.0 | 0.00 | 0.00 | 0.00 | 60 | 1007.3 |
| 20260506080526 | 68 | 196 | 2.0 | 10.0 | 0.00 | 0.00 | 0.00 | 60 | 1007.2 |
| 20260506073524 | 69 | 200 | 4.0 | 12.0 | 0.00 | 0.00 | 0.00 | 58 | 1007.4 |
| 20260506073022 | 69 | 186 | 5.0 | 12.0 | 0.00 | 0.00 | 0.00 | 58 | 1007.5 |
| 20260506072521 | 69 | 198 | 3.0 | 7.0 | 0.00 | 0.00 | 0.00 | 58 | 1007.4 |
| 20260506072020 | 69 | 188 | 3.0 | 7.0 | 0.00 | 0.00 | 0.00 | 57 | 1007.6 |
| 20260506071522 | 69 | 198 | 3.0 | 10.0 | 0.00 | 0.00 | 0.00 | 57 | 1007.7 |
| 20260506071019 | 69 | 200 | 3.0 | 10.0 | 0.00 | 0.00 | 0.00 | 57 | 1007.6 |
| 20260506070519 | 69 | 238 | 3.0 | 9.0 | 0.00 | 0.00 | 0.00 | 57 | 1007.6 |